Location: Palombina Nuova
(43.6167°N, 13.4000°E)
Time: 23:13:09
(UTC+00:00)

Cosmos 1151 Rocket - Pass Details

Date: 17 February 2020
Orbit: 592 x 616 km, 82.5° (Epoch: 05 April)

Event Time Altitude Azimuth Distance (km) Brightness Sun altitude
Rises 05:26:14 0° 180° (S) 2,830 6.6 -7.3°
Reaches altitude 10° 05:28:26 10° 178° (S) 1,936 5.8 -6.9°
Maximum altitude 05:32:40 68° 96° (E) 655 3.5 -6.2°
Drops below altitude 10° 05:37:00 10° 14° (NNE) 1,968 5.7 -5.4°
Sets 05:39:15 0° 11° (NNE) 2,881 6.5 -5.0°
